Theta_e
347 352 353 344 345 347 351 353 346 350 350 348 347 348 348 346 342 344 346 344 336 335 337 336 337 338 335 334 337 338 339 333 329 333 330 330 336 336 334 336 341 340 340 341 339 341 339 328 332
345 351 350 341 347 352 352 346 350 349 347 346 347 346 346 346 345 345 346 343 337 336 336 336 341 339 334 333 335 337 337 332 332 336 326 333 328 326 330 334 334 340 335 332 331 329 329 336 334
347 349 346 344 348 349 350 349 345 348 349 349 348 348 348 345 344 343 344 344 338 340 341 341 341 341 339 338 337 335 334 333 332 335 326 337 339 344 338 330 333 327 328 329 331 332 336 336 335
350 344 345 351 350 345 347 348 345 349 347 347 347 347 347 345 346 345 346 340 339 340 341 341 339 338 340 339 339 340 337 332 335 329 334 337 340 340 338 338 338 337 336 340 335 338 339 339 338
348 346 350 352 350 349 348 346 347 347 349 348 347 347 347 348 346 347 347 346 341 339 340 340 340 340 340 339 340 341 340 334 335 337 339 341 342 338 336 337 337 339 336 339 341 340 339 338 339
351 348 352 355 353 349 346 346 348 348 347 346 346 346 346 349 348 348 348 348 341 340 340 340 340 340 340 341 341 342 341 338 337 343 343 339 335 332 331 331 330 337 342 341 342 340 338 340 341
351 352 351 351 352 350 345 345 348 347 346 346 345 345 347 347 347 348 347 347 346 347 340 339 340 340 342 341 340 341 341 340 338 343 336 334 337 329 326 325 328 335 341 339 340 338 339 341 341
348 349 350 351 351 349 344 344 346 346 347 345 344 345 346 346 347 347 346 346 346 343 341 340 341 342 341 341 340 341 341 341 339 335 326 327 329 330 329 326 325 333 337 337 336 337 339 342 341
349 348 352 353 347 346 343 347 347 346 345 347 346 344 344 346 347 346 346 346 343 344 343 342 341 341 341 341 337 339 338 339 334 327 330 337 339 340 335 334 332 329 326 333 336 336 337 340 342
348 348 353 351 344 344 345 348 349 347 346 346 345 345 345 345 346 345 346 344 345 344 342 342 341 341 341 341 335 336 339 332 328 334 342 344 343 344 339 332 332 333 333 334 335 336 337 338 341
348 353 350 347 342 343 347 347 348 347 349 346 346 345 345 345 344 344 345 343 342 343 341 340 340 341 338 340 336 339 338 330 334 343 346 344 345 345 341 341 341 342 341 336 337 339 338 338 343
347 351 350 350 346 345 347 346 349 348 347 345 343 344 345 345 345 343 343 345 345 344 345 343 341 340 339 336 339 340 338 332 343 345 344 341 343 343 342 342 342 336 335 334 337 341 340 340 343
348 348 348 342 343 344 346 347 348 344 345 345 345 345 345 345 344 343 343 345 344 343 344 344 342 340 340 336 337 339 340 337 337 344 343 341 344 346 343 339 337 339 339 341 339 342 339 339 343
347 346 347 347 340 344 344 345 345 344 342 345 346 346 346 345 344 344 343 344 345 343 344 344 342 338 337 337 340 339 341 341 340 342 345 345 346 343 344 343 344 339 343 342 343 337 343 343 344
343 346 346 347 345 346 343 345 347 344 344 341 347 346 346 344 343 343 343 342 344 343 344 342 343 337 338 338 341 342 344 344 343 343 344 343 347 342 344 345 346 343 346 345 345 341 345 344 347
341 343 351 347 346 345 344 345 343 343 343 345 342 343 345 344 344 344 342 341 344 343 343 343 345 342 332 333 340 343 344 345 345 345 346 346 341 343 347 346 344 345 347 343 344 345 346 343 341
343 348 350 349 345 345 344 347 342 341 342 343 345 343 344 344 344 343 342 342 342 343 343 344 344 344 340 337 338 342 343 345 347 346 345 341 342 342 344 346 345 347 344 346 343 346 346 347 345
349 345 348 351 347 347 346 344 341 341 340 341 342 342 343 343 343 342 342 342 343 343 342 343 343 342 336 335 342 343 340 341 346 347 346 345 339 334 341 345 346 347 346 346 346 345 344 346 346
342 340 348 349 347 347 346 346 344 343 341 341 344 342 342 342 342 342 342 341 342 344 343 344 344 336 333 337 344 346 342 342 345 345 342 347 347 340 336 341 343 346 342 347 344 342 344 345 342
341 344 345 346 347 346 348 349 348 343 342 341 343 345 341 342 343 343 342 342 341 341 343 343 343 339 337 336 343 339 339 342 344 345 347 349 347 342 341 339 338 346 344 347 346 339 343 338 343
341 342 342 349 347 342 343 343 342 342 343 342 344 345 341 342 343 343 343 342 342 342 343 343 343 342 339 337 335 342 343 341 344 344 345 348 347 346 341 344 346 347 345 346 347 341 336 339 345
342 340 340 349 350 349 342 345 342 342 343 343 346 345 341 341 342 342 342 342 342 342 342 341 343 342 338 333 336 343 342 340 345 345 344 344 345 346 348 348 347 345 342 343 343 345 347 344 344
339 339 341 346 349 343 345 345 343 342 343 344 343 345 343 341 341 342 342 342 340 340 341 342 341 341 339 332 334 341 345 344 344 345 343 344 346 347 343 347 343 340 340 347 344 340 343 342 346
335 336 336 335 337 343 342 344 346 342 340 343 343 345 344 342 342 341 341 341 339 338 334 338 341 341 336 333 332 341 346 344 345 343 345 345 348 349 347 344 347 340 340 346 344 343 340 345 343
323 322 325 330 334 342 341 343 343 341 339 340 342 342 344 344 344 342 342 341 339 338 336 332 338 339 338 332 332 346 346 344 346 347 345 346 346 347 348 346 343 338 339 341 341 342 341 344 344
325 321 323 335 334 341 342 346 342 339 339 338 339 339 342 344 343 343 340 339 339 338 338 337 331 331 332 332 333 343 344 346 346 346 347 346 346 346 347 348 346 341 342 342 343 342 345 345 347
323 324 322 324 328 337 340 341 343 339 337 337 336 338 342 341 345 345 342 340 340 339 339 339 339 335 331 330 332 334 340 342 343 343 344 346 343 348 347 346 347 347 344 344 350 347 347 348 347
322 322 323 319 330 341 343 344 345 343 341 339 339 340 343 343 346 345 345 343 342 341 341 342 340 340 342 341 335 332 332 335 335 339 343 344 345 348 345 344 345 347 346 346 348 351 347 343 346
321 322 322 320 322 330 340 340 335 339 340 341 340 341 342 346 346 346 345 345 343 342 342 343 342 341 342 342 343 342 336 333 334 335 336 342 345 343 342 344 344 344 347 351 349 349 346 343 346
321 326 320 321 325 329 329 334 332 336 337 338 338 341 346 347 346 346 345 346 345 344 343 343 343 343 341 343 342 344 342 336 336 337 337 339 345 345 340 346 337 345 347 347 348 345 345 344 346
Wind_Speed
1 6 7 8 5 4 1 6 7 5 4 9 12 7 7 13 1 2 16 19 22 20 19 17 15 14 15 15 14 15 15 13 11 11 12 13 12 12 11 11 11 11 10 10 10 11 11 13 14
2 3 10 7 4 3 4 6 9 6 18 28 20 15 12 4 8 21 24 19 18 18 17 17 16 15 16 15 14 13 13 12 10 10 12 14 13 12 12 11 10 10 10 10 11 12 14 15 15
5 6 5 4 1 2 4 7 9 19 21 11 8 12 5 4 16 25 21 18 19 19 18 17 16 15 14 14 12 11 10 10 10 10 13 13 13 13 11 12 11 11 11 13 13 14 14 14 15
5 4 8 3 5 8 7 10 18 5 15 15 19 7 8 13 12 17 20 20 20 20 18 17 15 14 13 12 11 10 11 11 11 11 13 12 11 11 10 10 10 10 11 11 12 11 11 10 11
5 5 3 4 6 4 14 22 19 7 13 11 9 7 7 10 13 22 22 18 18 19 17 15 15 14 12 10 8 9 12 13 13 12 12 12 11 10 9 8 9 9 10 10 9 9 9 9 11
4 4 2 1 1 3 12 10 15 8 26 24 19 16 7 22 23 24 17 14 18 16 15 14 13 11 10 8 8 11 13 14 11 12 11 11 11 9 8 7 8 8 8 8 8 8 9 9 10
3 2 1 2 3 4 5 10 5 11 18 10 25 7 14 22 19 20 19 17 15 13 14 13 13 12 10 9 7 11 14 16 11 10 9 11 10 9 8 8 7 8 7 6 6 6 9 9 8
9 5 2 2 3 5 8 6 7 9 3 23 29 9 12 25 21 20 18 15 13 10 14 14 13 12 12 9 8 12 16 15 12 10 12 11 10 11 10 8 5 5 4 4 4 5 5 7 6
6 3 2 6 7 4 6 4 11 15 22 2 9 24 33 25 20 17 18 15 14 12 13 13 13 12 10 10 10 15 15 15 11 12 14 13 12 11 10 9 6 4 3 3 4 6 8 7 5
3 3 3 3 9 5 3 2 5 6 22 19 25 27 28 25 23 19 19 18 16 12 14 13 12 11 10 12 12 16 17 12 12 15 15 13 11 10 10 9 7 5 5 2 3 6 9 8 8
3 4 5 3 11 7 1 9 8 13 7 29 32 31 29 26 24 21 20 19 15 14 14 11 11 11 10 12 13 13 16 11 13 13 10 13 10 9 8 6 6 5 4 3 8 8 12 11 8
3 7 6 10 10 6 3 6 11 10 12 26 25 29 31 29 27 23 19 20 18 18 12 9 9 11 12 14 11 11 12 12 12 8 7 8 9 7 5 3 6 9 3 4 8 5 4 2 10
4 6 7 9 11 11 7 6 7 25 25 22 24 29 32 28 25 21 18 19 20 18 15 12 10 8 14 15 13 16 12 12 11 7 6 7 5 3 4 3 1 6 10 5 5 11 8 5 1
11 7 8 4 6 7 2 4 2 10 21 25 32 32 31 29 26 22 21 21 21 18 16 13 11 9 15 15 14 13 14 12 12 10 9 5 1 2 1 2 2 10 3 5 6 3 7 4 2
23 8 4 2 3 3 7 4 3 5 10 21 32 29 32 28 28 26 20 21 24 22 20 16 14 12 16 15 15 14 10 9 12 11 7 6 1 4 3 1 1 6 6 8 3 8 13 7 2
8 7 3 8 7 2 6 6 6 5 3 2 8 29 32 27 28 23 13 16 22 22 22 22 19 17 14 15 12 10 7 7 9 10 6 4 3 6 4 2 5 5 6 7 9 1 6 10 4
2 5 3 5 13 2 4 5 11 11 3 3 6 31 34 30 26 19 14 15 19 20 23 22 20 17 14 15 11 9 13 6 9 8 5 2 8 6 11 5 2 5 6 7 7 2 7 7 5
7 5 6 3 11 7 10 6 5 6 7 7 10 20 31 29 26 20 16 16 18 20 23 23 18 14 16 16 14 11 16 9 12 4 5 4 3 7 8 9 7 4 5 5 4 6 4 6 4
9 5 6 3 1 5 6 5 8 1 6 7 2 12 30 29 24 20 17 17 18 21 22 24 20 16 19 19 15 12 11 9 8 7 8 8 2 2 7 10 9 8 7 6 3 7 6 5 6
8 5 4 4 5 3 8 11 3 3 8 13 11 10 24 29 26 24 22 21 21 21 23 26 24 22 21 19 17 12 13 11 14 7 8 8 4 7 7 10 11 8 7 5 5 5 3 2 4
4 6 7 14 7 2 1 7 5 5 9 10 13 12 22 31 31 27 26 23 22 24 25 26 27 23 21 19 17 15 15 14 9 6 10 7 5 4 5 5 7 10 8 7 7 5 3 2 5
4 11 11 15 10 3 2 4 5 4 8 7 19 20 27 29 28 28 28 25 23 23 24 23 25 23 21 20 20 18 13 12 11 10 13 10 8 5 7 5 7 9 5 5 6 5 2 3 3
11 8 9 7 13 5 4 1 6 4 4 7 13 25 33 35 31 34 32 26 18 18 23 24 25 22 24 24 23 20 16 16 9 11 13 14 10 6 6 6 6 7 9 4 5 6 2 4 2
9 2 4 5 5 3 11 5 7 5 7 4 11 23 36 37 31 33 34 28 22 20 19 22 26 26 26 27 25 22 18 14 15 13 14 16 11 9 8 7 5 3 6 9 5 3 3 2 1
5 6 3 3 3 4 6 3 9 3 5 11 16 25 30 37 30 34 38 34 29 27 23 22 26 27 27 29 28 24 21 18 18 14 14 13 11 11 12 8 5 5 8 6 7 3 2 4 4
2 8 5 6 3 0 5 4 6 7 15 17 8 18 31 34 38 37 39 36 33 32 27 25 26 27 27 29 30 27 24 22 20 17 15 15 16 12 10 13 9 7 7 4 10 6 4 7 6
4 2 7 5 1 4 3 2 7 6 3 12 13 13 24 32 33 36 42 39 35 36 33 31 28 26 27 29 30 29 28 25 24 22 21 19 15 14 11 12 14 14 10 7 6 5 5 5 4
7 4 3 3 2 3 3 3 4 4 9 10 12 16 18 30 29 32 40 45 39 37 33 29 33 31 25 25 29 30 30 29 28 25 23 22 20 19 17 17 16 17 14 10 9 10 8 8 7
2 1 1 5 5 5 4 6 7 11 9 13 19 21 23 26 32 33 38 42 44 42 40 37 28 27 32 33 29 28 28 28 27 28 26 23 20 19 16 16 16 16 17 12 12 11 10 8 10
5 4 5 5 4 1 4 4 4 9 6 6 19 25 22 28 27 29 33 32 37 41 43 40 37 33 26 30 34 29 27 29 28 27 26 24 22 20 20 16 15 19 16 16 17 14 12 6 8
Wind_Direction
41 37 42 24 48 77 41 267 310 110 54 72 108 127 104 48 104 159 142 153 161 162 163 162 165 162 158 153 153 148 149 142 134 127 131 135 141 147 147 146 138 137 133 130 132 133 135 130 130
240 56 53 51 59 41 295 278 311 89 123 96 74 76 51 48 94 135 148 157 158 161 162 160 161 160 162 158 159 158 157 149 140 131 131 128 125 127 132 136 138 135 136 130 128 130 127 129 130
174 94 67 76 72 173 244 255 40 129 130 92 106 57 58 83 124 145 146 154 159 160 158 158 162 160 156 154 155 161 158 155 143 137 130 126 122 120 121 123 120 128 128 125 125 126 124 123 126
78 81 79 70 181 233 239 284 322 206 95 90 117 71 75 134 152 168 155 158 161 160 160 163 161 159 156 154 154 161 163 158 148 139 134 131 128 130 130 128 129 119 124 125 125 125 124 124 135
90 80 88 145 203 249 263 271 303 286 101 116 101 114 92 117 147 162 167 161 167 159 164 167 168 169 169 169 176 173 167 160 146 140 133 130 130 125 127 126 123 121 118 126 132 120 117 126 134
76 106 111 297 180 279 284 279 315 113 110 105 104 109 93 144 149 159 168 161 162 159 168 177 182 188 189 185 169 173 168 153 141 140 140 136 130 134 129 124 125 134 134 145 137 127 130 141 142
143 162 356 98 190 259 274 304 331 172 147 124 132 108 137 157 162 160 166 176 190 201 187 192 191 190 172 162 160 168 159 152 156 145 147 130 126 118 114 118 130 148 151 140 128 148 157 152 138
203 141 106 32 138 238 240 294 311 278 88 132 133 155 160 164 166 167 175 184 196 188 188 194 193 180 166 167 155 149 157 161 154 153 144 127 119 105 103 104 120 134 152 130 147 183 206 170 142
169 74 84 163 179 234 273 352 353 119 138 171 209 154 158 162 169 181 178 182 182 180 183 191 190 183 176 170 152 142 148 153 149 148 124 113 103 101 98 87 78 87 127 170 209 223 233 237 216
118 78 221 225 180 186 222 226 319 128 105 99 103 137 153 166 176 180 180 184 188 193 185 187 189 185 170 177 151 144 153 151 147 136 125 112 106 91 90 105 99 96 87 142 280 283 277 275 259
134 130 171 191 171 150 309 295 340 135 120 144 143 151 163 169 176 180 191 197 195 190 182 183 186 177 168 156 149 156 160 150 148 138 129 121 99 87 91 84 79 54 49 347 326 305 305 263 263
123 155 164 142 171 153 202 286 314 223 177 155 145 166 171 178 180 188 200 191 188 195 187 184 183 174 170 152 150 159 163 157 144 129 122 138 118 121 87 21 25 17 341 10 342 331 248 230 218
72 107 118 134 162 182 190 277 287 135 160 160 160 168 173 182 185 193 199 194 195 204 194 189 186 167 169 173 167 158 157 164 161 132 125 131 121 92 42 341 62 2 58 25 278 309 232 290 131
4 118 144 169 144 152 86 312 36 111 156 166 165 174 177 186 189 189 197 194 205 209 201 198 184 159 164 168 169 164 164 154 160 142 127 136 107 232 135 256 309 29 348 306 337 347 312 202 71
38 20 311 192 231 161 157 340 302 110 146 165 176 184 183 185 188 193 195 200 203 207 202 208 180 180 177 175 174 170 171 155 150 153 136 131 162 237 225 193 341 23 341 326 343 68 28 4 290
76 329 271 192 189 271 172 233 257 159 62 87 177 182 178 188 190 195 200 207 199 202 207 194 189 183 183 184 182 179 168 153 185 197 204 197 196 233 242 325 355 3 327 329 347 288 16 354 265
104 254 194 176 191 180 197 250 234 233 263 327 333 166 176 182 189 193 198 202 202 204 193 193 189 194 197 201 198 189 164 162 154 167 179 217 221 241 217 211 310 335 336 334 348 18 25 359 128
174 219 243 170 196 190 213 248 269 278 231 259 147 183 180 187 190 189 188 194 202 199 198 198 198 199 196 199 192 177 194 198 182 198 232 171 168 227 224 224 248 283 281 285 283 340 352 23 41
140 194 232 199 216 179 235 227 213 142 256 255 226 205 188 191 189 191 185 187 189 193 197 194 199 190 193 195 203 204 186 180 226 207 180 174 261 275 246 236 247 257 240 247 280 293 308 353 47
162 157 270 354 105 80 236 245 349 188 201 232 199 240 188 185 188 190 189 187 193 192 193 190 197 196 200 201 205 206 202 198 188 223 192 190 259 279 250 233 244 248 246 252 267 270 324 43 347
228 184 172 158 150 193 173 301 257 255 257 238 208 187 188 191 188 192 194 194 196 197 195 198 199 206 208 201 207 198 208 210 216 220 195 200 229 251 232 218 270 250 254 253 266 243 231 124 17
198 232 193 158 148 221 177 266 292 214 232 218 188 195 190 189 194 199 199 200 202 205 200 204 205 208 208 201 205 207 211 228 241 242 244 237 215 223 214 243 302 237 261 240 226 213 217 98 41
229 224 181 214 162 135 207 292 261 175 252 231 193 197 196 201 200 201 203 209 211 209 208 206 206 213 211 207 209 215 224 224 249 233 227 225 234 198 219 243 286 258 236 195 216 221 203 157 72
242 196 63 140 196 190 203 159 276 188 194 201 195 199 199 199 204 208 208 207 210 206 212 213 213 210 205 207 212 218 224 222 232 234 238 225 215 212 237 231 274 270 226 196 196 216 171 126 254
89 68 6 354 6 207 151 99 247 6 194 205 206 199 199 202 198 206 207 207 209 207 208 207 211 210 208 209 211 216 223 221 226 232 228 220 219 223 229 233 219 224 235 219 207 215 235 218 221
207 157 159 196 217 119 336 238 261 281 212 236 229 222 205 203 208 209 213 211 214 212 214 214 215 213 210 213 215 219 220 223 230 233 233 235 242 243 232 231 227 235 212 200 203 214 199 209 210
255 143 200 148 47 106 274 288 296 44 320 269 261 181 185 201 208 214 212 216 213 216 218 221 223 222 221 224 221 224 226 227 232 230 235 236 240 240 244 238 236 240 211 199 211 217 241 221 206
148 181 23 4 130 88 340 304 230 256 237 260 277 248 213 201 205 216 216 217 219 218 223 225 231 231 226 225 228 230 230 232 234 232 236 237 238 238 250 243 230 226 212 202 227 233 263 268 253
336 1 59 124 135 156 159 254 231 223 211 224 240 253 242 202 211 214 217 222 215 226 227 226 225 233 229 232 233 230 232 229 233 233 232 232 234 236 229 228 232 222 211 219 226 240 266 263 248
113 130 130 121 269 103 126 257 294 184 194 213 213 203 175 198 195 208 214 216 221 227 227 233 233 238 239 241 237 233 237 232 229 230 228 231 233 229 231 235 225 215 214 221 233 248 249 257 233